[[{"header":{"parameterUnit":"m.s-1","parameterCategory":1,"la1":30.2991,"la2":30.254,"lo1":-89.0895,"lo2":-89.0444,"dy":0.0017,"dx":0.0017,"nx":28,"ny":28,"refTime":"2025-03-17T09:00:00:Z","depth":0,"parameterNumber":2,"parameterNumberName":"U-component_of_WINDS"},"data":[0,0,0,0,0,0,0,0,0,0,0,0,0,0,0,0,0,0,0,0,0,0,0,0,0,0,0,0,0,0,0,0,0,0,0,0,0,0,0,0,0,0,0,0,0,0,0,0,0,0,0,0,0,0,0,0,0,0,1.5056,1.5057,0,1.5127,1.5128,1.5129,1.5108,1.5106,1.5105,1.5104,1.5179,1.5182,1.5186,0,0,0,0,0,0,0,0,0,0,0,0,0,1.4906,1.4908,1.5056,1.5057,1.5058,1.5127,1.5128,1.5129,1.5108,1.5106,1.5105,1.5103,1.5178,1.5182,1.5186,0,0,0,0,0,0,0,0,0,0,0,0,0,1.4973,1.4909,1.5056,1.5056,1.5056,1.5127,1.5128,1.5129,1.5109,1.5106,1.5104,1.5102,1.5177,1.5181,1.5186,1.5262,0,0,1.5202,1.5204,0,0,0,0,0,0,0,0,1.497,1.4979,1.5055,1.5056,1.5057,1.5106,1.5103,1.5174,1.5109,1.5089,1.5104,1.5101,1.5157,1.5163,1.5182,1.5266,1.5269,1.5202,1.5205,1.5208,1.5209,0,0,0,0,0,0,0,1.4965,1.4976,1.5084,1.5056,1.5057,1.5053,1.506,1.5116,1.5134,1.509,1.5089,1.5098,1.5157,1.5177,1.5183,1.527,1.5202,1.5207,1.521,1.5212,1.5422,1.5425,0,0,0,0,0,0,1.4959,1.4972,1.5082,1.5086,1.5007,1.5058,1.5066,1.5093,1.5134,1.5138,1.5099,1.5096,1.5169,1.5177,1.5186,1.5279,1.5208,1.5212,1.5215,1.542,1.5423,1.5426,0,0,0,0,0,0,1.4956,1.4969,1.5079,1.5029,1.5042,1.5063,1.5093,1.5095,1.5115,1.514,1.5144,1.5116,1.5168,1.5179,1.5244,1.5281,1.5215,1.5219,1.5417,1.5421,1.5424,1.5464,0,0,0,0,0,0,1.4952,1.4968,1.4996,1.5029,1.5045,1.5135,1.5095,1.5098,1.5124,1.512,1.5157,1.5161,1.5167,1.5236,1.5249,1.5287,1.5223,1.5414,1.5419,1.5423,1.5459,1.5469,1.5477,0,0,0,0,0,1.4946,1.5004,1.4997,1.5011,1.508,1.5137,1.5146,1.515,1.5126,1.5156,1.5172,1.516,1.5275,1.5243,1.5257,1.5297,1.5411,1.5417,1.5423,1.5456,1.5467,1.5476,0,0,0,0,0,0,1.4975,1.5009,1.5001,1.5072,1.5101,1.5133,1.517,1.5162,1.52,1.5195,1.52,1.5209,1.5276,1.5293,1.5257,1.5374,1.534,1.5348,1.536,1.5371,1.5379,1.5374,1.5227,0,0,0,0,0,1.4989,1.5031,1.5059,1.5118,1.5134,1.5149,1.5174,1.5175,1.5206,1.5219,1.524,1.5272,1.5316,1.5344,1.5385,1.5462,1.5471,1.5496,1.5505,1.5512,1.552,1.5564,1.5576,1.5444,1.5444,1.5444,0,0,1.502,1.5043,1.5069,1.5125,1.5148,1.5193,1.516,1.5208,1.5242,1.5227,1.5289,1.5307,1.5343,1.5414,1.5447,1.5431,1.5558,1.5519,1.5524,1.5529,1.5571,1.5583,1.5594,1.5448,1.5448,1.5447,0,0,1.5098,1.5119,1.5172,1.5196,1.5232,1.5242,1.5255,1.5288,1.5299,1.5362,1.5352,1.5393,1.5467,1.5494,1.5517,1.5607,1.5598,1.5621,1.5666,1.5709,1.5719,1.5728,1.5762,1.5774,1.5628,1.5628,1.5629,0,1.5131,1.5197,1.52,1.525,1.5275,1.5263,1.5318,1.5342,1.5389,1.5408,1.5389,1.5483,1.5506,1.5585,1.5607,1.5626,1.5642,1.5617,1.5717,1.5726,1.5735,1.5767,1.578,1.5631,1.5631,1.563,1.563,0,1.5237,1.5283,1.5322,1.5368,1.5398,1.545,1.5462,1.5492,1.5491,1.5504,1.557,1.5598,1.5645,1.5664,1.5663,1.5743,1.5732,1.5715,1.5681,1.575,1.5781,1.5793,1.5635,1.5634,1.5633,1.5632,0,0,1.5335,1.5383,1.5397,1.5419,1.5458,1.5494,1.5547,1.5593,1.5619,1.5653,1.5698,1.5762,1.5747,1.5773,1.5776,1.5813,1.5886,1.5792,1.5793,1.581,1.5978,1.5991,1.6006,1.588,1.5882,1.5884,1.5975,0,1.5417,1.5508,1.5514,1.5597,1.564,1.5631,1.5677,1.5707,1.5721,1.5761,1.5776,1.5822,1.5798,1.5814,1.5851,1.5869,1.592,1.5863,1.5923,1.5926,1.5915,1.6021,1.6035,1.612,1.5987,1.5989,1.5991,0,1.5526,1.5563,1.565,1.5685,1.5703,1.5744,1.5788,1.5826,1.5861,1.5868,1.5899,1.5897,1.5952,1.5916,1.5994,1.5955,1.598,1.5994,1.5997,1.6004,1.5963,1.6032,1.6147,1.616,1.6009,1.6008,1.6007,0,1.559,1.5662,1.5724,1.5742,1.5784,1.5813,1.5832,1.5865,1.5893,1.5931,1.595,1.5995,1.602,1.6055,1.6066,1.6038,1.6144,1.6108,1.6154,1.6154,1.6177,1.6175,1.6299,1.6191,1.6191,1.6191,1.6191,0,1.5682,1.5736,1.5753,1.5792,1.5853,1.5859,1.592,1.5937,1.5967,1.6009,1.6004,1.6044,1.6056,1.6099,1.6108,1.6172,1.6183,1.6192,1.6194,1.6193,1.6192,1.621,1.6205,1.6194,1.6194,1.6193,1.6192,0,1.5764,1.5777,1.5845,1.5879,1.5889,1.5933,1.5963,1.6001,1.6014,1.6069,1.6082,1.6103,1.6154,1.6168,1.6229,1.6235,1.6311,1.6307,1.6299,1.63,1.6344,1.6341,1.6485,1.6505,1.6383,1.6384,1.6385,0,1.5823,1.5864,1.5903,1.5931,1.5951,1.5996,1.6025,1.6034,1.6064,1.6108,1.6141,1.6191,1.6231,1.6313,1.6335,1.6382,1.638,1.6427,1.6387,1.6385,1.6382,1.638,1.6385,1.6435,1.6436,1.6437,1.6438,0,1.5925,1.593,1.5971,1.6016,1.605,1.6085,1.6119,1.6143,1.6157,1.6191,1.6243,1.6274,1.6337,1.6387,1.6435,1.6456,1.6451,1.645,1.6464,1.6464,1.6458,1.6463,1.6321,1.6447,1.6446,1.6446,1.6445,1.6445,1.5999,1.6036,1.6069,1.6116,1.6143,1.6175,1.6213,1.6231,1.6274,1.6325,1.6328,1.6384,1.642,1.6484,1.6508,1.6553,1.6539,1.6558,1.6563,1.6568,1.6572,1.645,1.6562,1.6561,1.6561,1.6561,1.6561,0,1.6102,1.6124,1.6167,1.6214,1.6252,1.6242,1.628,1.6312,1.6361,1.6395,1.6435,1.6495,1.6544,1.6571,1.662,1.6652,1.6651,1.6665,1.6663,1.6668,1.6581,1.6565,1.6665,1.6665,1.6665,1.6665,1.6665,1.6665,1.6161,1.6224,1.6233,1.631,1.6331,1.6386,1.6409,1.6439,1.6466,1.6534,1.6574,1.6591,1.6622,1.6674,1.672,1.6726,1.6746,1.6762,1.6767,1.6685,1.6674,1.6664,1.6649,1.6765,1.6766,1.6851,1.6852,1.6852]},{"header":{"parameterUnit":"m.s-1","parameterCategory":1,"la1":30.2991,"la2":30.254,"lo1":-89.0895,"lo2":-89.0444,"dy":0.0017,"dx":0.0017,"nx":28,"ny":28,"refTime":"2025-03-17T09:00:00:Z","depth":0,"parameterNumber":3,"parameterNumberName":"V-component_of_WINDS"},"data":[0,0,0,0,0,0,0,0,0,0,0,0,0,0,0,0,0,0,0,0,0,0,0,0,0,0,0,0,0,0,0,0,0,0,0,0,0,0,0,0,0,0,0,0,0,0,0,0,0,0,0,0,0,0,0,0,0,0,-0.5747,-0.5748,0,-0.5836,-0.5837,-0.5838,-0.594,-0.5942,-0.5943,-0.5944,-0.6039,-0.604,-0.6041,0,0,0,0,0,0,0,0,0,0,0,0,0,-0.5666,-0.5667,-0.5747,-0.5748,-0.5749,-0.5836,-0.5837,-0.5839,-0.594,-0.5942,-0.5943,-0.5945,-0.6038,-0.604,-0.6041,0,0,0,0,0,0,0,0,0,0,0,0,0,-0.5723,-0.5667,-0.5746,-0.581,-0.5816,-0.5836,-0.5838,-0.5839,-0.5939,-0.5942,-0.5944,-0.5946,-0.6038,-0.6039,-0.6041,-0.6006,0,0,-0.6046,-0.6047,0,0,0,0,0,0,0,0,-0.5719,-0.5726,-0.5799,-0.5805,-0.5813,-0.5879,-0.5844,-0.5895,-0.5939,-0.5893,-0.5945,-0.5947,-0.5984,-0.599,-0.6002,-0.6011,-0.6015,-0.6046,-0.6047,-0.6048,-0.6049,0,0,0,0,0,0,0,-0.5715,-0.5722,-0.5782,-0.58,-0.5809,-0.5835,-0.5845,-0.5854,-0.5925,-0.5897,-0.5905,-0.5914,-0.5988,-0.6,-0.6005,-0.6016,-0.6046,-0.6048,-0.6049,-0.6049,-0.6002,-0.5999,0,0,0,0,0,0,-0.5701,-0.5718,-0.5779,-0.5785,-0.5771,-0.5834,-0.5846,-0.5856,-0.5925,-0.5938,-0.5912,-0.5918,-0.5996,-0.6003,-0.6009,-0.5973,-0.6048,-0.605,-0.6051,-0.6004,-0.6001,-0.5999,0,0,0,0,0,0,-0.5699,-0.5706,-0.5776,-0.5754,-0.5765,-0.5833,-0.5843,-0.5856,-0.5869,-0.5936,-0.5949,-0.5911,-0.5998,-0.6006,-0.6006,-0.5977,-0.605,-0.6052,-0.6007,-0.6003,-0.6,-0.5899,0,0,0,0,0,0,-0.5697,-0.5705,-0.5691,-0.5753,-0.5765,-0.577,-0.5842,-0.5856,-0.5871,-0.588,-0.5939,-0.5951,-0.6001,-0.6003,-0.6008,-0.5981,-0.6053,-0.6009,-0.6005,-0.6001,-0.5905,-0.5893,-0.5882,0,0,0,0,0,-0.5693,-0.566,-0.569,-0.5697,-0.575,-0.5768,-0.5776,-0.5833,-0.5868,-0.5856,-0.5899,-0.5949,-0.598,-0.6002,-0.6008,-0.5981,-0.6012,-0.6006,-0.6001,-0.5911,-0.5895,-0.5882,0,0,0,0,0,0,-0.5593,-0.5669,-0.5703,-0.5688,-0.5721,-0.5785,-0.5771,-0.5815,-0.5839,-0.5847,-0.5919,-0.5931,-0.5922,-0.5953,-0.5976,-0.5952,-0.6003,-0.5999,-0.5932,-0.5918,-0.5906,-0.5899,-0.6055,0,0,0,0,0,-0.557,-0.5577,-0.5643,-0.5624,-0.5639,-0.5702,-0.5712,-0.5754,-0.5791,-0.5805,-0.5849,-0.5884,-0.5902,-0.5912,-0.5932,-0.5911,-0.5925,-0.5896,-0.5884,-0.5874,-0.5869,-0.5861,-0.5848,-0.5982,-0.5982,-0.5982,0,0,-0.552,-0.5563,-0.5563,-0.5605,-0.5635,-0.5642,-0.5713,-0.5717,-0.5724,-0.5807,-0.5808,-0.5842,-0.5886,-0.5874,-0.5872,-0.5899,-0.5836,-0.5868,-0.5859,-0.586,-0.5854,-0.5841,-0.583,-0.5978,-0.5979,-0.598,0,0,-0.5434,-0.5467,-0.5454,-0.5483,-0.5528,-0.5571,-0.5567,-0.5626,-0.565,-0.5653,-0.5716,-0.5725,-0.5754,-0.5783,-0.5801,-0.5727,-0.5774,-0.5732,-0.567,-0.5661,-0.5651,-0.5642,-0.5615,-0.5604,-0.5727,-0.5727,-0.5727,0,-0.5368,-0.538,-0.5442,-0.5443,-0.5459,-0.5535,-0.5523,-0.5548,-0.5597,-0.5608,-0.5638,-0.5676,-0.5711,-0.5708,-0.569,-0.5702,-0.5701,-0.5725,-0.5647,-0.5639,-0.5631,-0.5606,-0.5596,-0.5722,-0.5722,-0.5723,-0.5723,0,-0.5296,-0.5303,-0.5288,-0.5332,-0.5348,-0.5342,-0.5404,-0.5413,-0.5454,-0.5493,-0.5496,-0.5541,-0.5571,-0.5574,-0.5614,-0.5577,-0.5592,-0.5633,-0.5686,-0.5612,-0.559,-0.5581,-0.5714,-0.5716,-0.5718,-0.5719,0,0,-0.5147,-0.5227,-0.522,-0.5242,-0.5297,-0.5305,-0.5303,-0.5332,-0.5338,-0.537,-0.5371,-0.5394,-0.5433,-0.5454,-0.5498,-0.549,-0.5428,-0.5533,-0.5535,-0.5511,-0.539,-0.5357,-0.5345,-0.546,-0.5459,-0.5457,-0.5386,0,-0.507,-0.507,-0.5127,-0.5112,-0.512,-0.5192,-0.5191,-0.5225,-0.5263,-0.5276,-0.5319,-0.5333,-0.5384,-0.5397,-0.5392,-0.5436,-0.5405,-0.5443,-0.5462,-0.5461,-0.5446,-0.5333,-0.5299,-0.5229,-0.5377,-0.5376,-0.5375,0,-0.498,-0.5006,-0.499,-0.5047,-0.5053,-0.505,-0.5082,-0.5093,-0.5135,-0.5163,-0.5186,-0.5236,-0.524,-0.5291,-0.5297,-0.5321,-0.5333,-0.5356,-0.5355,-0.5358,-0.5412,-0.5332,-0.5208,-0.5196,-0.5362,-0.5363,-0.5364,0,-0.4872,-0.4904,-0.4899,-0.4915,-0.4981,-0.4977,-0.5005,-0.5048,-0.5062,-0.5091,-0.51,-0.5129,-0.5144,-0.5166,-0.5224,-0.5255,-0.5223,-0.5279,-0.5247,-0.5245,-0.5235,-0.5235,-0.511,-0.5245,-0.5245,-0.5245,-0.5245,0,-0.4779,-0.4767,-0.4851,-0.4847,-0.4836,-0.4903,-0.489,-0.4925,-0.4963,-0.4969,-0.5034,-0.5038,-0.5115,-0.5128,-0.5173,-0.5171,-0.5178,-0.5201,-0.5213,-0.5195,-0.5191,-0.5202,-0.5208,-0.5242,-0.5243,-0.5243,-0.5244,0,-0.4656,-0.4712,-0.4711,-0.4774,-0.4789,-0.4778,-0.4832,-0.4832,-0.4875,-0.4881,-0.4886,-0.4952,-0.4971,-0.5031,-0.5066,-0.5096,-0.508,-0.5104,-0.5066,-0.5073,-0.5037,-0.5039,-0.4914,-0.4901,-0.5044,-0.5043,-0.5041,0,-0.4592,-0.4585,-0.4646,-0.4654,-0.4678,-0.4691,-0.4705,-0.4771,-0.4783,-0.483,-0.4825,-0.4849,-0.4871,-0.4899,-0.495,-0.4977,-0.5001,-0.4956,-0.5006,-0.4987,-0.5,-0.4999,-0.4998,-0.4944,-0.4942,-0.4941,-0.4939,0,-0.4473,-0.4501,-0.4519,-0.4546,-0.4562,-0.4587,-0.4616,-0.4619,-0.4693,-0.4704,-0.4723,-0.4741,-0.4776,-0.4799,-0.4834,-0.4864,-0.4914,-0.4923,-0.4917,-0.4897,-0.4875,-0.4886,-0.5035,-0.4925,-0.4927,-0.4928,-0.4929,-0.4929,-0.4378,-0.4374,-0.4416,-0.4434,-0.4463,-0.4489,-0.4492,-0.4534,-0.4551,-0.4584,-0.4622,-0.4637,-0.468,-0.4732,-0.4759,-0.4773,-0.4799,-0.4791,-0.4788,-0.4785,-0.4775,-0.4874,-0.478,-0.478,-0.4781,-0.4781,-0.4781,0,-0.4261,-0.4292,-0.4308,-0.4346,-0.436,-0.4405,-0.444,-0.4449,-0.4461,-0.4496,-0.4517,-0.454,-0.4563,-0.4617,-0.4645,-0.4646,-0.467,-0.4651,-0.4651,-0.4657,-0.475,-0.4752,-0.4632,-0.4632,-0.4632,-0.4632,-0.4632,-0.4632,-0.4202,-0.4198,-0.4231,-0.4242,-0.4274,-0.4288,-0.4304,-0.4329,-0.4357,-0.4379,-0.4398,-0.4433,-0.4476,-0.4509,-0.4532,-0.4548,-0.4555,-0.4529,-0.4551,-0.4637,-0.4651,-0.4664,-0.4666,-0.453,-0.453,-0.4457,-0.4457,-0.4456]}]]